TimeCET,TemperatureF,Dew PointF,Humidity,Sea Level PressureIn,VisibilityMPH,Wind Direction,Wind SpeedMPH,Gust SpeedMPH,PrecipitationIn,Events,Conditions,WindDirDegrees,DateUTC
12:00 AM,39.2,37.4,93,30.15,6.2,WSW,10.4,-,N/A,,Overcast,250,2013-01-08 23:00:00
12:30 AM,39.2,37.4,93,30.15,6.2,WSW,10.4,-,N/A,,Overcast,250,2013-01-08 23:30:00
1:00 AM,40,38,89,30.22,12,West,11.2,,,,Overcast,260,2013-01-09 00:00:00
1:00 AM,39.2,37.4,93,30.15,6.2,WSW,11.5,-,N/A,,Overcast,250,2013-01-09 00:00:00
1:30 AM,39.2,37.4,93,30.15,6.2,WSW,11.5,-,N/A,,Overcast,250,2013-01-09 00:30:00
2:00 AM,39.2,37.4,93,30.15,6.2,WSW,11.5,-,N/A,,Mostly Cloudy,240,2013-01-09 01:00:00
2:30 AM,39.2,37.4,93,30.15,6.2,WSW,9.2,-,N/A,,Mostly Cloudy,250,2013-01-09 01:30:00
3:00 AM,39.2,37.4,93,30.15,6.2,WSW,8.1,-,N/A,,Mostly Cloudy,250,2013-01-09 02:00:00
3:30 AM,39.2,37.4,93,30.15,6.2,WSW,9.2,-,N/A,,Overcast,240,2013-01-09 02:30:00
4:00 AM,39.2,37.4,93,30.15,6.2,WSW,9.2,-,N/A,,Overcast,240,2013-01-09 03:00:00
4:30 AM,39.2,37.4,93,30.15,6.2,WSW,10.4,-,N/A,,Overcast,240,2013-01-09 03:30:00
5:00 AM,39.2,37.4,93,30.15,6.2,WSW,9.2,-,N/A,,Overcast,250,2013-01-09 04:00:00
5:30 AM,39.2,37.4,93,30.15,6.2,WSW,9.2,-,N/A,,Overcast,240,2013-01-09 04:30:00
6:00 AM,39.2,37.4,93,30.15,6.2,WSW,11.5,-,N/A,,Overcast,240,2013-01-09 05:00:00
6:30 AM,39.2,37.4,93,30.15,6.2,SW,10.4,-,N/A,,Overcast,230,2013-01-09 05:30:00
7:00 AM,39,37,90,30.20,12,WSW,8.9,,,,Overcast,240,2013-01-09 06:00:00
7:00 AM,39.2,37.4,93,30.15,6.2,WSW,9.2,-,N/A,,Overcast,240,2013-01-09 06:00:00
7:30 AM,39.2,37.4,93,30.15,6.2,SW,9.2,-,N/A,,Overcast,230,2013-01-09 06:30:00
8:00 AM,39.2,37.4,93,30.15,6.2,SW,9.2,-,N/A,,Overcast,230,2013-01-09 07:00:00
8:30 AM,39.2,37.4,93,30.15,6.2,SW,9.2,-,N/A,,Overcast,230,2013-01-09 07:30:00
9:00 AM,39.2,37.4,93,30.15,6.2,SSW,8.1,-,N/A,,Overcast,210,2013-01-09 08:00:00
9:30 AM,39.2,37.4,93,30.15,6.2,SW,9.2,-,N/A,,Overcast,230,2013-01-09 08:30:00
10:00 AM,39.2,37.4,93,30.15,6.2,SW,10.4,-,N/A,,Overcast,220,2013-01-09 09:00:00
10:30 AM,41.0,37.4,87,30.15,6.2,SW,9.2,-,N/A,,Overcast,220,2013-01-09 09:30:00
11:00 AM,41.0,39.2,93,30.12,6.2,SW,10.4,-,N/A,,Overcast,220,2013-01-09 10:00:00
11:30 AM,41.0,39.2,93,30.12,6.2,SW,10.4,-,N/A,,Overcast,220,2013-01-09 10:30:00
12:00 PM,41.0,39.2,93,30.12,6.2,SW,11.5,-,N/A,,Mostly Cloudy,220,2013-01-09 11:00:00
12:30 PM,41.0,39.2,93,30.09,6.2,SSW,8.1,-,N/A,,Overcast,210,2013-01-09 11:30:00
1:00 PM,41,39,91,30.13,12,SSW,8.9,,,,Overcast,210,2013-01-09 12:00:00
1:00 PM,41.0,39.2,93,30.06,6.2,SSW,8.1,-,N/A,,Overcast,200,2013-01-09 12:00:00
1:05 PM,41.0,39.2,93,30.06,6.2,SSW,8.1,-,N/A,Rain,Light Rain,200,2013-01-09 12:05:00
1:30 PM,41.0,39.2,93,30.06,6.2,SW,10.4,-,N/A,,Overcast,220,2013-01-09 12:30:00
2:00 PM,41.0,39.2,93,30.06,6.2,SSW,10.4,-,N/A,,Overcast,210,2013-01-09 13:00:00
2:30 PM,41.0,39.2,93,30.04,6.2,SSW,11.5,-,N/A,,Overcast,210,2013-01-09 13:30:00
3:00 PM,41.0,39.2,93,30.04,6.2,SSW,10.4,-,N/A,,Overcast,210,2013-01-09 14:00:00
3:22 PM,41.0,39.2,93,30.04,6.2,SW,11.5,-,N/A,,Overcast,220,2013-01-09 14:22:00
3:30 PM,41.0,39.2,93,30.04,6.2,SW,11.5,-,N/A,,Overcast,220,2013-01-09 14:30:00
4:00 PM,41.0,37.4,87,30.04,6.2,SW,11.5,-,N/A,,Overcast,220,2013-01-09 15:00:00
4:30 PM,39.2,37.4,93,30.01,6.2,SSW,10.4,-,N/A,,Overcast,210,2013-01-09 15:30:00
4:40 PM,39.2,37.4,93,30.01,6.2,SSW,9.2,-,N/A,,Overcast,210,2013-01-09 15:40:00
4:49 PM,39.2,39.2,100,30.01,6.2,SSW,9.2,-,N/A,,Light Drizzle,210,2013-01-09 15:49:00
5:00 PM,39.2,37.4,93,30.01,4.3,SSW,11.5,-,N/A,,Light Drizzle,210,2013-01-09 16:00:00
5:30 PM,39.2,39.2,100,30.01,6.2,SSW,8.1,-,N/A,,Overcast,210,2013-01-09 16:30:00
5:40 PM,39.2,39.2,100,30.01,6.2,SSW,8.1,-,N/A,,Overcast,210,2013-01-09 16:40:00
6:00 PM,39.2,39.2,100,29.98,6.2,SSW,9.2,-,N/A,,Overcast,210,2013-01-09 17:00:00
6:30 PM,39.2,37.4,93,29.98,6.2,SW,8.1,-,N/A,,Light Drizzle,220,2013-01-09 17:30:00
7:00 PM,39.2,37.4,93,29.98,6.2,SSW,8.1,-,N/A,,Overcast,210,2013-01-09 18:00:00
7:30 PM,39.2,37.4,93,29.95,6.2,SSW,9.2,-,N/A,,Overcast,210,2013-01-09 18:30:00
7:47 PM,39.2,37.4,93,29.95,6.2,SW,10.4,-,N/A,Rain,Light Rain,220,2013-01-09 18:47:00
8:00 PM,39.2,37.4,93,29.95,6.2,SW,10.4,-,N/A,Rain,Light Rain,220,2013-01-09 19:00:00
8:30 PM,39.2,35.6,87,29.92,6.2,SW,12.7,-,N/A,,Overcast,220,2013-01-09 19:30:00
9:00 PM,39.2,35.6,87,29.92,6.2,SW,12.7,-,N/A,,Overcast,230,2013-01-09 20:00:00
9:30 PM,39.2,35.6,87,29.92,6.2,SW,11.5,-,N/A,,Overcast,220,2013-01-09 20:30:00
10:00 PM,39.2,35.6,87,29.89,6.2,WSW,13.8,-,N/A,,Overcast,240,2013-01-09 21:00:00
10:19 PM,39.2,35.6,87,29.89,6.2,WSW,15.0,-,N/A,Rain,Light Rain,240,2013-01-09 21:19:00
10:30 PM,39.2,35.6,87,29.89,6.2,SW,13.8,-,N/A,Rain,Light Rain,230,2013-01-09 21:30:00
11:00 PM,39.2,35.6,87,29.86,6.2,WSW,16.1,-,N/A,Rain,Light Rain,240,2013-01-09 22:00:00
11:30 PM,39.2,33.8,81,29.86,6.2,WSW,17.3,-,N/A,,Overcast,240,2013-01-09 22:30:00